TimeEST,TemperatureF,Dew PointF,Humidity,Sea Level PressureIn,VisibilityMPH,Wind Direction,Wind SpeedMPH,Gust SpeedMPH,PrecipitationIn,Events,Conditions,WindDirDegrees,DateUTC
12:15 AM,23.4,20.3,88,29.79,10.0,NNE,6.9,-,N/A,,Overcast,20,2012-12-10 05:15:00
12:36 AM,23.4,20.3,88,29.78,10.0,NNE,5.8,-,N/A,,Overcast,30,2012-12-10 05:36:00
12:56 AM,23.4,20.5,89,29.77,10.0,North,4.6,-,N/A,,Overcast,360,2012-12-10 05:56:00
1:15 AM,23.4,20.8,90,29.75,7.0,North,3.5,-,N/A,Snow,Light Snow,10,2012-12-10 06:15:00
1:36 AM,23.4,20.8,90,29.74,7.0,North,3.5,-,N/A,,Overcast,10,2012-12-10 06:36:00
1:56 AM,23.4,20.8,90,29.74,7.0,North,4.6,-,N/A,,Overcast,350,2012-12-10 06:56:00
2:16 AM,23.5,21.2,91,29.73,2.0,Calm,Calm,-,N/A,Snow,Light Snow,0,2012-12-10 07:16:00
2:36 AM,24.8,21.2,86,29.73,1.0,NNW,3.5,-,N/A,Snow,Snow,330,2012-12-10 07:36:00
2:55 AM,24.3,21.9,91,29.72,1.5,North,3.5,-,0.01,Snow,Light Snow,350,2012-12-10 07:55:00
3:16 AM,25.7,23.4,91,29.72,1.5,NNE,9.2,-,N/A,Snow,Light Snow,30,2012-12-10 08:16:00
3:36 AM,26.6,23.9,90,29.71,1.8,NNE,10.4,-,N/A,Snow,Light Snow,20,2012-12-10 08:36:00
3:55 AM,26.8,23.9,89,29.70,1.2,NNE,13.8,-,N/A,Snow,Snow,20,2012-12-10 08:55:00
4:16 AM,26.6,23.7,89,29.70,1.0,NNE,13.8,-,N/A,Snow,Snow,30,2012-12-10 09:16:00
4:36 AM,26.6,23.5,88,29.69,5.0,NNE,13.8,20.7,N/A,Snow,Light Snow,20,2012-12-10 09:36:00
4:55 AM,26.6,23.4,88,29.69,1.8,NNE,12.7,17.3,N/A,Snow,Light Snow,20,2012-12-10 09:55:00
5:16 AM,26.8,23.7,88,29.69,1.2,North,13.8,23.0,N/A,Snow,Light Snow,10,2012-12-10 10:16:00
5:36 AM,26.6,23.7,89,29.69,1.0,NNE,17.3,20.7,N/A,Snow,Light Snow,20,2012-12-10 10:36:00
5:55 AM,26.6,23.0,86,29.69,1.5,NNE,13.8,-,N/A,Snow,Light Snow,20,2012-12-10 10:55:00
6:55 AM,26.6,23.0,86,29.69,1.2,NNE,15.0,20.7,N/A,Snow,Light Snow,20,2012-12-10 11:55:00
7:50 AM,26.6,23.0,86,29.70,0.8,North,16.1,-,N/A,Snow,Snow,10,2012-12-10 12:50:00
8:50 AM,24.8,23.0,93,29.71,1.5,North,13.8,-,N/A,Snow,Light Snow,360,2012-12-10 13:50:00
9:55 AM,26.6,19.4,74,29.73,10.0,North,17.3,-,N/A,,Overcast,10,2012-12-10 14:55:00
10:55 AM,26.6,19.4,74,29.74,10.0,North,19.6,25.3,N/A,,Overcast,10,2012-12-10 15:55:00
11:50 AM,26.6,19.4,74,29.74,10.0,NNE,15.0,-,N/A,,Overcast,20,2012-12-10 16:50:00
12:50 PM,26.6,19.4,74,29.75,10.0,North,12.7,18.4,N/A,,Overcast,350,2012-12-10 17:50:00
2:50 PM,24.8,19.4,80,29.75,10.0,North,12.7,-,N/A,,Overcast,360,2012-12-10 19:50:00
3:50 PM,24.8,17.6,74,29.77,10.0,North,10.4,18.4,N/A,,Overcast,350,2012-12-10 20:50:00
4:50 PM,24.8,17.6,74,29.79,10.0,NNW,6.9,-,N/A,,Overcast,340,2012-12-10 21:50:00
5:55 PM,23.0,17.6,80,29.80,10.0,North,6.9,-,N/A,Snow,Light Snow,350,2012-12-10 22:55:00
6:50 PM,23.0,17.6,80,29.82,10.0,NNW,6.9,-,N/A,,Overcast,330,2012-12-10 23:50:00
7:50 PM,23.0,17.6,80,29.83,10.0,WNW,5.8,-,N/A,Snow,Light Snow,300,2012-12-11 00:50:00
8:50 PM,23.0,17.6,80,29.84,10.0,Calm,Calm,-,N/A,,Overcast,0,2012-12-11 01:50:00
9:50 PM,23.0,17.6,80,29.84,10.0,Calm,Calm,-,N/A,Snow,Light Snow,0,2012-12-11 02:50:00
10:16 PM,22.8,18.1,82,29.84,10.0,WSW,3.5,-,N/A,Snow,Light Snow,250,2012-12-11 03:16:00
10:36 PM,23.0,18.1,82,29.84,7.0,WSW,3.5,-,N/A,Snow,Light Snow,240,2012-12-11 03:36:00
10:56 PM,22.6,18.1,83,29.84,10.0,WSW,3.5,-,N/A,Snow,Light Snow,250,2012-12-11 03:56:00
11:15 PM,22.6,18.0,82,29.84,10.0,WSW,4.6,-,N/A,Snow,Light Snow,250,2012-12-11 04:15:00
11:36 PM,22.6,18.1,83,29.84,10.0,WSW,4.6,-,N/A,,Overcast,240,2012-12-11 04:36:00
11:55 PM,22.3,18.3,85,29.84,10.0,SW,4.6,-,N/A,,Overcast,220,2012-12-11 04:55:00